#timestamp,LO_Frequency,Hit,StdDev 
1680296415.9,286047001.9,N
1680296435.7,286047001.8,N
1680296455.5,286047001.6,N
1680296475.4,286046999.8,N
1680296495.2,286047000.5,N
1680296515.1,286047000.2,N
1680296516.0,286047000.2,N
1680296535.8,286047000.1,N
1680296555.6,286047000.0,N
1680296575.5,286046998.5,N
1680296595.3,286046998.5,N
1680296615.2,286046998.1,N
1680296635.9,286046998.5,N
1680296655.7,286046998.9,N
1680296675.6,286046996.6,N
1680296695.4,286046998.9,N
1680296715.2,286046996.8,N
1680296735.1,286046996.5,N
1680296736.0,286046996.5,N
1680296755.8,286047000.0,N
1680296775.7,286046998.8,N
1680296795.5,286047001.1,N
1680296815.3,286046996.6,N
1680296835.2,286046998.0,N
1680296855.0,286046994.9,N
1680296855.9,286046994.9,N
1680296875.7,286046995.5,N
1680296895.6,286046996.2,N
1680296915.4,286046993.4,Y
1680296935.3,286046997.3,P
1680296955.1,286046995.4,P
1680296975.8,286046995.5,P
1680296995.7,286046994.9,Y
1680297015.5,286046999.7,P
1680297035.4,286047002.4,N
1680297055.2,286047004.2,N
1680297075.0,286047001.4,N
1680297075.9,286047001.4,N
1680297095.8,286047004.4,N
1680297115.6,286047002.4,N
1680297135.4,286047000.3,N
1680297155.3,286046998.9,N
1680297175.1,286046998.2,N
1680297195.9,286046998.3,N
1680297215.7,286047000.6,N
1680297235.5,286047000.9,N
1680297255.4,286047001.2,N
1680297275.2,286047000.8,N
1680297295.0,286047000.0,N
1680297295.9,286047000.0,N
1680297315.8,286047001.9,N
1680297335.6,286047001.4,N
1680297355.5,286047001.5,N
1680297375.3,286047004.2,N
1680297395.1,286047004.4,N
1680297415.9,286047002.9,N
1680297435.7,286047004.4,N
1680297455.6,286047001.3,N
1680297475.4,286047001.3,N
1680297495.2,286047004.2,N
1680297515.1,286047003.7,N
1680297516.0,286047003.7,N
1680297535.8,286047003.3,N
1680297555.6,286047005.7,Y
1680297575.5,286047004.4,P
1680297595.3,286047004.2,P
1680297615.2,286047001.4,N
1680297635.9,286047002.0,N
1680297655.7,286047002.2,N
1680297675.6,286046999.7,N
1680297695.4,286047002.7,N
1680297715.2,286047002.7,N
1680297735.1,286047000.3,N
1680297736.0,286047000.3,N
1680297755.8,286047000.6,N
1680297775.7,286047001.0,N
1680297795.5,286046998.6,N
1680297815.3,286046998.7,N
1680297835.2,286046998.9,N
1680297855.0,286046998.5,N
1680297855.9,286046998.5,N
1680297875.7,286046998.6,N
1680297895.6,286047001.1,N
1680297915.4,286047001.1,N
1680297935.3,286047001.1,N
1680297955.1,286047001.0,N
1680297956.0,286047001.0,N
1680297975.8,286046998.3,N
1680297995.7,286046999.0,N
1680298015.5,286046999.4,N
1680298035.3,286046996.6,N
1680298055.2,286046999.5,N
1680298075.0,286046997.4,N
1680298075.9,286046997.4,N
1680298095.8,286046995.0,N
1680298115.6,286046995.4,N
1680298135.4,286046995.5,N
1680298155.3,286046993.4,Y
1680298175.1,286046996.4,P
1680298195.9,286046996.0,N
1680298215.7,286046993.7,P
1680298235.5,286046995.9,N
1680298255.4,286046996.1,N
1680298275.2,286046993.6,Y
1680298295.1,286046996.9,P
1680298296.0,286046996.9,P
1680298315.8,286046996.5,P
1680298335.6,286046999.5,N
1680298355.5,286046999.1,N
1680298375.3,286046996.6,N
1680298395.1,286046994.9,Y
1680298415.9,286046998.8,P
1680298435.7,286046998.7,N
1680298455.6,286046998.6,N
1680298475.4,286046998.8,N
1680298495.2,286046998.9,N
1680298515.1,286047001.2,N
1680298516.0,286047001.2,N
1680298535.8,286046998.5,N
1680298555.6,286046998.2,N
1680298575.5,286046998.2,N
1680298595.3,286047000.8,N
1680298615.2,286046998.1,N
1680298635.9,286047001.2,N
1680298655.7,286046998.6,N
1680298675.6,286047001.2,N
1680298695.4,286047000.8,N
1680298715.2,286046998.8,N
1680298735.1,286046998.9,N
1680298736.0,286046998.9,N
1680298755.8,286046999.0,N
1680298775.7,286046996.9,N
1680298795.5,286046999.5,N
1680298815.3,286046996.5,N
1680298835.2,286046996.6,N
1680298855.0,286046998.3,N
1680298855.9,286046998.3,N
1680298875.8,286046998.3,N
1680298895.6,286046999.0,N
1680298915.4,286046997.0,N
1680298935.3,286046997.7,N
1680298955.1,286046999.2,N
1680298975.8,286046996.7,N
1680298995.7,286046997.1,N
1680299015.5,286046999.5,N
1680299035.4,286046997.4,N
1680299055.2,286046995.1,Y
1680299075.0,286046997.1,P
1680299075.9,286046997.1,P
1680299095.8,286046996.8,P
1680299115.6,286046997.2,Y
1680299135.5,286047001.0,P
1680299155.3,286047001.1,N
1680299175.1,286046998.5,N
1680299195.9,286047000.9,N
1680299215.7,286046998.1,N
1680299235.5,286046998.5,N
1680299255.4,286046998.1,N
1680299275.2,286046998.4,N
1680299295.0,286046998.7,N
1680299296.0,286046998.7,N
1680299315.8,286047000.6,N
1680299335.6,286047000.9,N
1680299355.5,286046998.6,N
1680299375.3,286046999.0,N
1680299395.1,286046999.3,N
1680299415.9,286046998.2,N
1680299435.7,286046998.4,N
1680299455.6,286046998.2,N
1680299475.4,286046999.1,N
1680299495.2,286046996.9,N
1680299515.1,286046996.6,N
1680299516.0,286046996.6,N
1680299535.8,286046996.5,N
1680299555.6,286046997.5,N
1680299575.5,286046999.5,N
1680299595.3,286046996.6,N
1680299615.2,286046998.7,N
1680299635.9,286046996.9,N
1680299655.7,286046997.1,N
1680299675.6,286046997.0,N
1680299695.4,286046996.7,N
1680299715.2,286046998.8,N
1680299735.1,286046998.5,N
1680299736.0,286046998.5,N
1680299755.8,286046997.0,N
1680299775.7,286046999.4,N
1680299795.5,286046998.7,N
1680299815.3,286046999.0,N
1680299835.2,286046999.4,N
1680299855.0,286046999.3,N
1680299855.9,286046999.3,N
1680299875.8,286046997.1,N
1680299895.6,286046997.0,N
1680299915.4,286046997.2,N
1680299935.3,286046998.0,N
1680299955.1,286046997.9,N
1680299975.9,286046996.8,Y
1680299995.7,286047000.5,P
